Temp
-5 -5 -5 -4 -4 -4 -4 -4 -4 -4 -4 -4 -4 -4 -5 -5 -5 -5 -5 -5 -5 -5 -6 -6 -6 -5 -5 -5 -5 -5 -5 -5 -5 -5 -5 -4 -4 -5 -5 -4 -5 -5 -5 -5 -6
-5 -5 -4 -4 -4 -4 -4 -4 -4 -3 -4 -3 -4 -4 -5 -5 -5 -4 -5 -6 -5 -4 -5 -5 -5 -5 -5 -5 -4 -4 -5 -4 -4 -4 -4 -5 -4 -4 -4 -4 -5 -5 -5 -5 -6
-4 -4 -4 -4 -4 -4 -4 -3 -3 -3 -3 -3 -3 -4 -5 -4 -5 -4 -3 -4 -5 -5 -4 -5 -5 -5 -5 -4 -4 -4 -4 -4 -4 -4 -4 -5 -5 -4 -4 -4 -5 -4 -5 -5 -6
-4 -4 -4 -4 -4 -4 -4 -3 -3 -3 -3 -3 -3 -4 -4 -5 -4 -4 -4 -4 -4 -4 -4 -5 -4 -4 -5 -4 -4 -4 -4 -4 -4 -4 -4 -5 -5 -5 -5 -4 -5 -5 -4 -5 -5
-4 -4 -4 -4 -3 -4 -3 -3 -3 -3 -3 -3 -3 -4 -4 -4 -5 -4 -5 -4 -4 -4 -4 -5 -4 -4 -4 -4 -5 -4 -4 -4 -4 -3 -4 -4 -4 -4 -4 -4 -4 -5 -5 -4 -5
-4 -4 -4 -3 -3 -3 -3 -3 -3 -3 -3 -3 -3 -3 -3 -4 -3 -4 -4 -4 -4 -4 -4 -5 -4 -4 -4 -4 -4 -4 -4 -4 -3 -3 -3 -4 -4 -4 -4 -4 -5 -5 -5 -5 -5
-4 -4 -4 -3 -3 -3 -3 -3 -3 -3 -2 -3 -3 -3 -3 -4 -4 -3 -4 -4 -4 -4 -4 -4 -4 -4 -5 -4 -5 -4 -4 -4 -4 -3 -3 -3 -4 -4 -4 -4 -4 -4 -5 -5 -5
-4 -4 -4 -4 -3 -3 -3 -3 -3 -3 -3 -3 -3 -3 -3 -3 -4 -3 -4 -3 -4 -4 -4 -5 -5 -5 -5 -5 -4 -4 -5 -5 -4 -4 -3 -3 -3 -4 -4 -4 -4 -4 -5 -5 -5
-4 -4 -4 -4 -4 -3 -3 -3 -3 -3 -3 -3 -3 -3 -3 -3 -3 -3 -4 -4 -4 -4 -5 -5 -4 -5 -5 -5 -5 -5 -4 -5 -5 -4 -4 -4 -4 -3 -4 -4 -4 -4 -4 -5 -5
-4 -4 -4 -4 -4 -3 -3 -3 -3 -3 -3 -3 -3 -3 -3 -3 -4 -4 -4 -4 -4 -4 -4 -4 -5 -5 -5 -5 -5 -5 -5 -5 -5 -5 -5 -4 -4 -4 -4 -4 -4 -4 -5 -4 -4
-4 -4 -4 -4 -4 -4 -4 -4 -3 -3 -3 -3 -3 -3 -3 -3 -3 -4 -4 -4 -4 -5 -4 -5 -6 -6 -5 -6 -6 -5 -5 -5 -5 -5 -4 -4 -4 -4 -4 -4 -4 -4 -4 -5 -5
-5 -5 -4 -4 -4 -4 -4 -4 -4 -4 -3 -3 -3 -3 -3 -3 -3 -3 -4 -4 -4 -4 -5 -5 -6 -5 -6 -6 -6 -6 -6 -6 -6 -5 -6 -5 -5 -5 -4 -4 -4 -4 -5 -5 -5
-5 -5 -5 -5 -4 -4 -4 -4 -4 -4 -4 -4 -3 -3 -3 -3 -3 -3 -4 -4 -4 -5 -5 -5 -6 -5 -6 -6 -6 -7 -6 -7 -7 -6 -6 -6 -6 -6 -6 -5 -5 -5 -5 -5 -5
-5 -5 -5 -5 -5 -5 -5 -4 -4 -4 -4 -4 -4 -4 -4 -4 -3 -3 -4 -4 -4 -4 -5 -5 -4 -5 -6 -6 -6 -8 -7 -7 -7 -6 -7 -7 -5 -6 -7 -6 -6 -5 -5 -5 -5
-5 -5 -5 -5 -5 -5 -5 -5 -5 -5 -5 -5 -4 -5 -5 -5 -4 -4 -4 -4 -4 -4 -5 -6 -5 -5 -6 -6 -6 -6 -7 -7 -7 -8 -7 -7 -7 -7 -7 -7 -7 -6 -5 -5 -5
-5 -5 -5 -5 -5 -5 -6 -6 -6 -6 -5 -5 -5 -5 -5 -5 -5 -5 -5 -5 -5 -4 -5 -5 -5 -6 -5 -6 -6 -5 -6 -7 -7 -9 -8 -8 -7 -8 -7 -7 -7 -7 -6 -6 -6
-5 -5 -5 -5 -5 -5 -6 -6 -6 -6 -6 -6 -6 -6 -6 -6 -5 -5 -5 -5 -5 -5 -6 -6 -6 -6 -6 -7 -5 -6 -7 -8 -8 -8 -8 -8 -7 -8 -6 -6 -7 -7 -7 -7 -6
-5 -5 -5 -5 -5 -5 -5 -6 -6 -6 -6 -6 -7 -7 -6 -7 -6 -6 -6 -6 -6 -6 -6 -6 -6 -6 -7 -8 -7 -7 -9 -9 -8 -8 -8 -7 -7 -7 -6 -7 -7 -7 -7 -8 -7
-6 -6 -5 -5 -6 -6 -6 -6 -6 -6 -7 -7 -8 -8 -8 -7 -7 -7 -7 -7 -7 -7 -7 -7 -10 -6 -7 -7 -8 -8 -8 -9 -9 -9 -8 -9 -5 -6 -6 -6 -7 -7 -7 -8 -7
-6 -6 -6 -6 -6 -6 -6 -7 -6 -7 -8 -8 -9 -9 -9 -9 -9 -8 -8 -8 -8 -7 -8 -8 -10 -8 -7 -8 -8 -8 -9 -9 -9 -9 -9 -9 -6 -7 -6 -6 -6 -7 -7 -7 -8
-6 -6 -6 -6 -6 -6 -7 -7 -7 -8 -8 -9 -9 -9 -10 -10 -9 -9 -10 -9 -9 -9 -9 -9 -9 -9 -8 -8 -10 -8 -9 -9 -10 -9 -9 -9 -9 -6 -7 -7 -6 -7 -7 -7 -7
-6 -6 -7 -6 -7 -7 -7 -7 -8 -8 -8 -9 -9 -10 -10 -10 -11 -11 -11 -10 -10 -10 -9 -9 -11 -11 -10 -9 -9 -9 -10 -9 -10 -10 -9 -8 -9 -8 -8 -7 -8 -7 -7 -8 -8
-7 -7 -7 -7 -7 -8 -8 -8 -8 -9 -9 -9 -10 -11 -11 -11 -12 -12 -11 -10 -11 -11 -11 -11 -11 -12 -11 -10 -10 -10 -10 -9 -9 -9 -10 -9 -10 -8 -8 -8 -8 -8 -8 -8 -8
-7 -7 -7 -7 -8 -8 -8 -9 -9 -9 -10 -11 -12 -12 -12 -12 -12 -12 -12 -11 -11 -12 -12 -12 -12 -12 -11 -11 -12 -11 -11 -10 -10 -11 -11 -11 -10 -9 -9 -8 -8 -9 -9 -9 -9
-8 -8 -8 -8 -9 -8 -9 -9 -9 -10 -11 -12 -13 -13 -13 -13 -13 -12 -12 -12 -12 -12 -13 -13 -13 -12 -12 -12 -12 -12 -12 -12 -11 -11 -11 -11 -11 -9 -9 -9 -9 -9 -9 -9 -9
-8 -8 -8 -9 -9 -9 -9 -10 -10 -11 -13 -13 -13 -13 -13 -13 -13 -13 -12 -12 -12 -12 -12 -13 -13 -13 -13 -13 -13 -12 -12 -12 -12 -11 -11 -11 -11 -10 -10 -10 -9 -9 -9 -9 -9
-9 -9 -9 -9 -9 -10 -10 -10 -11 -13 -14 -14 -13 -13 -13 -14 -13 -13 -13 -13 -13 -13 -12 -12 -13 -13 -13 -13 -12 -13 -12 -12 -12 -11 -11 -11 -11 -11 -10 -10 -10 -10 -10 -10 -9
Height
5893 5895 5895 5897 5897 5898 5898 5899 5898 5900 5901 5902 5904 5906 5907 5906 5906 5906 5905 5904 5904 5905 5905 5907 5907 5907 5908 5909 5910 5912 5914 5916 5916 5916 5917 5918 5919 5919 5921 5921 5922 5924 5925 5925 5927
5893 5895 5896 5897 5898 5899 5899 5900 5899 5900 5902 5903 5906 5908 5908 5908 5908 5908 5903 5899 5902 5904 5906 5909 5909 5911 5909 5912 5913 5915 5916 5918 5920 5920 5920 5920 5922 5923 5923 5923 5924 5925 5927 5928 5928
5892 5895 5896 5898 5899 5899 5899 5900 5901 5901 5903 5904 5907 5909 5909 5909 5911 5910 5909 5905 5907 5909 5910 5912 5912 5912 5911 5914 5915 5917 5918 5921 5922 5923 5923 5923 5924 5925 5926 5927 5928 5929 5928 5929 5929
5891 5894 5896 5898 5899 5900 5900 5900 5902 5902 5904 5905 5908 5909 5910 5911 5914 5912 5912 5911 5913 5913 5914 5914 5915 5915 5915 5916 5918 5920 5922 5923 5924 5926 5927 5927 5927 5927 5928 5929 5930 5930 5930 5930 5930
5891 5893 5895 5897 5899 5900 5901 5901 5902 5903 5905 5906 5908 5909 5910 5912 5912 5914 5914 5915 5916 5917 5917 5917 5918 5918 5918 5920 5921 5922 5923 5925 5926 5927 5928 5929 5929 5930 5930 5930 5930 5930 5932 5932 5931
5889 5891 5894 5896 5898 5899 5901 5902 5902 5903 5905 5907 5908 5910 5910 5913 5913 5914 5915 5918 5918 5919 5921 5921 5921 5922 5922 5924 5925 5924 5925 5925 5926 5927 5928 5929 5930 5932 5932 5932 5932 5931 5933 5933 5934
5888 5890 5892 5894 5897 5898 5900 5901 5902 5903 5905 5907 5909 5910 5911 5914 5914 5915 5916 5918 5920 5921 5921 5924 5925 5925 5925 5925 5927 5928 5927 5928 5929 5929 5929 5930 5931 5932 5933 5934 5933 5933 5934 5935 5935
5888 5889 5891 5893 5895 5897 5899 5900 5902 5903 5904 5906 5908 5910 5912 5913 5913 5916 5916 5919 5922 5923 5924 5925 5926 5927 5928 5927 5929 5930 5931 5931 5931 5931 5931 5932 5933 5933 5934 5934 5934 5935 5935 5936 5936
5887 5889 5890 5892 5894 5895 5897 5899 5900 5902 5903 5905 5908 5910 5912 5913 5914 5915 5917 5919 5920 5923 5925 5926 5927 5927 5929 5929 5931 5932 5932 5932 5932 5932 5933 5933 5932 5933 5935 5935 5935 5935 5936 5936 5937
5885 5887 5889 5891 5892 5894 5896 5897 5899 5900 5902 5903 5906 5909 5910 5912 5914 5914 5917 5917 5919 5920 5924 5926 5927 5929 5930 5931 5933 5933 5934 5935 5935 5935 5934 5934 5934 5934 5935 5935 5935 5936 5935 5936 5937
5883 5885 5888 5889 5891 5893 5895 5896 5899 5900 5900 5901 5904 5906 5907 5909 5910 5914 5915 5917 5918 5919 5920 5922 5926 5928 5929 5930 5931 5933 5934 5936 5936 5936 5936 5935 5935 5935 5935 5936 5935 5936 5936 5936 5938
5881 5883 5886 5887 5888 5890 5892 5894 5895 5897 5898 5899 5900 5903 5905 5907 5909 5911 5913 5916 5917 5919 5919 5921 5922 5923 5926 5929 5930 5931 5933 5933 5934 5935 5936 5936 5936 5936 5936 5936 5937 5937 5937 5937 5937
5878 5880 5882 5883 5884 5886 5888 5890 5892 5893 5895 5896 5897 5898 5901 5904 5905 5908 5910 5910 5913 5917 5918 5918 5917 5920 5922 5925 5928 5929 5930 5931 5933 5933 5934 5935 5935 5935 5935 5935 5935 5935 5936 5937 5937
5875 5876 5878 5880 5881 5881 5882 5884 5886 5888 5890 5892 5893 5894 5896 5898 5900 5903 5905 5908 5910 5912 5913 5914 5916 5918 5920 5921 5923 5926 5926 5929 5931 5933 5936 5935 5936 5934 5933 5933 5934 5934 5934 5935 5936
5872 5874 5875 5876 5877 5877 5878 5879 5880 5882 5885 5886 5887 5889 5891 5893 5896 5897 5900 5901 5904 5906 5910 5912 5911 5914 5917 5918 5920 5920 5923 5925 5928 5931 5932 5932 5935 5932 5931 5931 5931 5932 5933 5935 5935
5869 5870 5870 5872 5873 5873 5873 5875 5876 5878 5878 5879 5881 5884 5885 5887 5888 5891 5894 5896 5897 5899 5902 5903 5907 5908 5911 5914 5917 5919 5920 5922 5925 5927 5930 5930 5932 5929 5927 5929 5929 5929 5930 5932 5933
5865 5865 5865 5866 5868 5868 5868 5869 5871 5870 5872 5873 5875 5877 5879 5881 5882 5883 5886 5889 5892 5895 5896 5897 5899 5902 5906 5909 5910 5915 5919 5922 5924 5925 5927 5922 5927 5923 5924 5926 5927 5928 5928 5927 5928
5861 5861 5861 5861 5861 5861 5862 5863 5862 5864 5864 5866 5868 5870 5871 5873 5875 5878 5880 5881 5884 5888 5891 5892 5894 5897 5898 5903 5905 5908 5913 5919 5922 5923 5925 5917 5918 5913 5921 5922 5922 5924 5925 5924 5924
5856 5856 5855 5856 5855 5856 5857 5856 5855 5856 5857 5858 5860 5861 5864 5864 5867 5869 5873 5876 5877 5880 5885 5887 5890 5888 5893 5895 5900 5902 5906 5908 5909 5910 5911 5915 5909 5911 5914 5915 5917 5917 5918 5920 5920
5851 5850 5849 5848 5848 5847 5848 5847 5846 5847 5848 5849 5851 5853 5855 5857 5859 5861 5863 5867 5869 5874 5877 5880 5883 5882 5886 5889 5891 5895 5898 5903 5904 5904 5905 5908 5903 5905 5908 5908 5910 5911 5912 5913 5914
5845 5844 5842 5841 5840 5839 5839 5837 5838 5839 5839 5841 5842 5844 5846 5849 5853 5855 5857 5857 5861 5865 5869 5872 5878 5875 5879 5882 5886 5886 5890 5893 5897 5896 5900 5903 5902 5897 5899 5900 5901 5903 5904 5905 5907
5838 5837 5834 5833 5832 5829 5829 5829 5830 5829 5830 5831 5832 5834 5837 5839 5844 5848 5851 5853 5855 5858 5862 5866 5871 5872 5872 5872 5877 5880 5884 5885 5889 5892 5890 5891 5893 5889 5891 5892 5894 5895 5896 5898 5899
5831 5830 5827 5825 5823 5822 5822 5822 5822 5821 5822 5822 5822 5824 5826 5831 5836 5841 5845 5847 5850 5853 5855 5858 5864 5864 5865 5868 5869 5871 5875 5878 5880 5882 5883 5885 5886 5881 5883 5885 5886 5886 5888 5889 5889
5824 5822 5820 5817 5815 5816 5814 5814 5813 5812 5811 5811 5813 5813 5817 5823 5827 5833 5838 5843 5845 5847 5851 5853 5858 5863 5868 5867 5866 5866 5868 5870 5873 5876 5879 5877 5873 5875 5875 5876 5878 5879 5879 5880 5881
5817 5815 5812 5810 5809 5809 5808 5806 5803 5801 5800 5799 5802 5805 5809 5815 5821 5828 5833 5838 5841 5844 5847 5850 5854 5855 5857 5858 5860 5860 5861 5863 5865 5866 5868 5870 5865 5868 5867 5868 5869 5870 5870 5871 5872
5810 5808 5805 5803 5802 5802 5800 5798 5794 5791 5791 5790 5792 5794 5800 5807 5816 5822 5828 5833 5838 5842 5844 5847 5849 5851 5852 5853 5854 5855 5855 5856 5856 5857 5858 5859 5857 5859 5859 5860 5860 5861 5861 5863 5864
5801 5800 5798 5797 5796 5796 5794 5792 5788 5785 5783 5782 5785 5787 5794 5805 5811 5817 5822 5827 5833 5836 5840 5843 5845 5847 5847 5848 5849 5850 5849 5849 5847 5848 5849 5849 5846 5851 5850 5850 5851 5851 5852 5853 5854
Wind_Speed
11 10 8 5 6 7 6 3 5 5 7 12 14 11 7 9 13 16 13 3 6 15 14 12 15 14 17 17 16 17 18 17 17 19 17 16 17 17 16 20 18 13 13 16 15
12 11 9 7 5 6 5 4 4 5 7 10 13 11 9 9 13 19 19 7 20 24 21 16 18 13 17 18 18 16 16 16 16 17 17 17 15 16 16 16 18 17 14 13 13
13 11 9 8 6 5 5 4 4 5 7 8 11 11 9 10 13 24 22 21 22 23 20 18 16 17 21 21 17 15 15 13 14 13 14 15 14 15 14 14 13 13 16 13 12
12 11 10 9 7 6 5 5 5 5 6 9 10 11 10 10 12 13 20 21 22 20 22 20 19 20 21 21 19 14 12 10 11 12 12 11 11 11 13 13 13 9 9 13 13
14 11 10 9 8 7 6 5 4 5 5 7 10 12 11 10 10 12 11 15 17 18 15 18 19 20 21 17 15 14 11 11 10 9 9 10 11 10 9 10 11 12 7 11 13
15 12 10 9 9 8 7 6 5 5 4 6 7 11 11 12 10 11 7 15 20 23 21 17 17 21 20 18 13 12 11 10 9 8 9 9 10 10 10 10 8 11 8 9 12
11 11 10 10 10 9 8 8 8 6 6 5 6 7 9 11 10 13 10 12 17 19 19 21 17 13 11 13 11 14 11 10 10 9 8 9 10 9 10 10 10 9 9 8 10
10 9 8 9 10 9 9 9 9 9 8 6 6 6 7 8 9 12 15 15 19 17 13 18 14 13 12 14 13 13 10 9 9 11 9 11 11 9 9 10 10 10 9 9 9
10 10 9 8 8 8 9 9 10 10 10 9 8 8 6 6 7 7 11 14 17 18 18 18 15 15 16 12 17 12 11 10 11 13 12 12 14 14 13 10 9 10 11 12 11
9 10 10 10 10 9 8 8 10 11 11 12 11 11 10 9 9 8 10 16 17 16 18 16 14 14 16 16 19 13 12 10 9 14 15 14 14 13 12 11 10 8 12 12 12
9 9 9 10 11 11 11 10 10 10 12 13 15 15 16 15 15 13 13 14 17 17 14 16 19 18 17 14 16 15 13 13 11 10 12 12 11 10 10 11 10 9 8 9 10
12 12 12 13 13 13 13 13 14 14 14 14 14 15 16 17 18 16 15 16 16 19 16 15 19 20 19 19 17 15 13 12 12 11 9 9 8 9 9 8 7 9 8 9 11
12 13 13 15 17 18 18 18 18 17 18 18 18 17 17 17 19 19 20 20 18 18 22 21 25 21 22 20 19 19 18 17 13 14 13 12 11 11 11 11 11 10 10 9 7
9 10 10 10 14 15 18 20 21 21 21 21 22 23 22 21 21 19 23 24 23 21 22 21 21 20 21 22 20 19 22 21 18 14 10 16 11 16 14 15 13 13 14 13 13
9 10 11 10 12 14 15 16 18 21 23 26 26 23 25 26 25 25 24 26 26 26 22 24 25 19 19 22 21 23 19 18 16 18 24 22 17 20 22 20 18 16 15 13 14
8 8 10 10 11 14 17 17 19 19 21 23 24 25 27 27 28 28 29 30 30 30 28 29 27 25 24 23 21 19 20 18 13 12 18 22 24 24 27 25 23 23 20 16 18
12 11 12 12 13 15 17 19 22 24 22 25 24 24 26 29 31 30 31 31 31 32 30 30 27 33 27 28 26 23 21 15 14 14 13 28 27 34 24 26 27 27 25 25 23
13 14 15 16 17 18 19 21 24 24 27 27 26 25 25 28 31 32 32 33 34 33 33 33 34 32 34 33 32 27 19 18 18 17 16 27 28 42 29 30 30 31 31 29 28
15 15 16 17 18 20 21 23 27 25 27 29 28 31 30 32 30 30 32 33 35 35 34 33 28 37 36 37 32 33 29 27 23 26 28 19 31 29 27 25 28 31 35 36 33
16 18 18 19 19 21 23 27 29 30 31 32 34 33 32 32 33 31 33 33 36 34 34 35 31 39 36 35 36 36 35 28 28 26 26 21 35 31 25 26 28 31 31 33 36
19 19 20 20 22 24 24 28 28 30 32 34 35 36 36 35 33 33 32 35 33 32 34 35 31 36 35 36 29 37 33 33 30 30 20 20 23 31 30 29 30 30 31 32 33
21 21 21 22 24 22 20 20 20 23 24 29 33 37 37 37 34 34 33 31 30 29 30 30 26 24 26 39 35 36 33 33 27 24 32 32 28 35 27 29 29 30 32 36 36
21 21 22 23 21 20 18 21 22 24 26 29 34 36 38 38 36 34 32 31 29 26 24 25 22 26 31 33 35 33 32 30 32 34 27 30 25 37 32 30 25 27 28 31 33
22 23 23 23 20 20 19 22 23 26 29 30 31 37 36 38 39 36 31 26 27 23 17 17 18 18 15 16 19 23 25 27 30 23 19 25 34 34 31 31 29 28 28 31 29
22 22 22 20 21 19 20 21 26 30 32 28 28 31 34 36 36 36 29 25 26 22 17 13 13 11 19 24 25 24 26 28 31 33 33 28 38 33 34 32 32 31 33 32 32
21 21 21 20 19 19 20 21 26 31 26 22 23 26 34 36 32 34 31 26 27 25 19 17 14 12 12 13 16 17 21 22 27 32 34 37 41 38 38 37 36 36 36 36 37
22 21 18 18 17 17 18 21 24 19 19 19 19 24 28 31 30 29 33 31 25 24 23 20 19 20 22 22 22 24 24 26 29 31 30 29 37 31 35 37 38 38 38 38 40
Wind_Direction
176 171 161 160 139 133 130 113 100 101 119 137 146 142 132 77 73 78 61 95 210 181 152 129 123 123 119 119 112 110 112 120 125 129 134 136 137 133 135 135 132 136 146 145 146
186 181 168 165 154 144 148 136 106 101 113 138 140 141 134 101 91 68 47 85 139 158 145 145 130 125 120 127 124 116 106 114 126 132 134 134 138 136 134 134 135 136 135 134 137
192 191 184 179 173 162 149 159 132 114 119 132 138 145 144 114 108 90 74 73 121 130 131 134 120 113 114 123 119 114 113 114 123 132 139 142 145 137 131 131 134 143 139 135 130
199 193 199 195 192 187 160 164 159 126 132 127 135 142 149 126 120 122 117 104 123 126 125 121 117 111 111 121 123 123 123 128 130 133 133 137 146 140 134 144 138 134 138 133 129
205 199 199 201 203 206 189 176 176 159 137 136 137 149 157 143 142 137 140 117 125 131 132 123 123 121 114 118 125 131 138 142 141 146 149 151 152 149 143 145 152 138 154 141 133
202 203 201 205 199 212 206 203 191 183 178 139 139 153 163 150 144 138 156 123 136 137 141 135 129 127 122 123 130 129 129 139 143 151 148 153 161 167 165 160 167 139 151 146 149
189 199 203 205 206 204 211 215 211 201 200 190 159 161 165 171 158 145 150 146 150 148 145 145 150 145 136 140 146 145 146 153 149 149 151 162 157 166 178 179 179 168 167 158 150
184 189 194 201 205 210 210 213 222 215 212 206 205 195 174 181 182 157 165 160 159 167 159 152 156 169 146 153 159 158 154 160 173 162 155 149 155 158 170 176 189 189 173 170 156
195 198 200 205 203 205 212 216 224 225 228 220 218 217 210 197 193 185 174 184 176 184 182 170 176 174 169 165 160 159 161 165 172 175 172 167 163 161 161 159 170 190 183 177 171
210 211 210 216 219 214 213 217 224 231 231 232 223 222 215 221 202 210 185 188 196 204 182 184 178 180 160 159 165 176 177 179 180 184 184 182 178 173 169 163 155 167 185 180 177
209 215 222 224 225 229 231 227 228 232 234 234 233 225 217 213 221 207 207 201 201 212 201 177 183 195 193 182 180 181 187 203 207 205 202 188 185 180 174 167 157 159 166 175 177
233 230 228 235 236 235 236 238 240 241 239 242 245 239 237 230 226 224 220 217 209 212 211 206 211 212 210 206 196 194 198 206 208 205 207 205 194 189 196 200 176 168 170 171 177
242 243 239 242 245 246 246 245 245 246 246 246 245 244 240 236 237 230 226 232 231 221 209 211 217 212 217 218 202 208 205 208 206 208 208 209 215 213 209 208 204 199 185 187 192
253 250 245 241 247 243 243 244 243 244 245 247 248 246 244 241 238 231 230 232 233 231 231 224 226 223 220 222 216 222 220 214 206 209 231 204 231 229 225 228 222 223 212 202 199
254 256 258 252 250 257 255 252 249 243 242 243 244 246 247 243 244 239 230 227 230 235 229 228 241 232 220 225 217 223 225 226 229 215 210 223 195 247 230 232 235 238 234 223 220
264 253 255 252 250 251 257 258 258 254 249 249 248 246 246 247 246 246 242 236 234 231 227 235 237 238 234 235 229 228 226 234 243 224 227 240 214 254 231 231 236 244 244 240 241
268 267 267 267 262 255 254 255 255 255 255 251 251 250 248 247 245 243 242 241 242 239 234 235 223 238 231 235 243 223 223 237 251 246 238 247 228 234 230 236 237 240 247 251 249
266 266 265 263 260 262 261 255 254 256 253 256 251 248 244 246 247 246 244 238 236 238 240 236 239 238 236 234 236 238 228 231 246 248 248 249 239 242 244 243 248 244 245 249 252
279 277 276 273 264 257 254 255 256 258 255 253 249 246 242 241 240 241 242 242 240 235 233 237 230 242 233 245 241 247 246 239 241 249 249 256 247 248 241 244 237 242 245 249 253
286 284 285 280 272 265 258 254 254 250 251 250 247 246 245 242 237 237 236 236 240 238 234 237 227 241 243 245 247 244 249 250 255 253 256 263 260 261 252 251 243 241 243 241 246
293 289 289 287 284 277 265 258 258 255 254 252 251 249 244 243 243 236 236 237 234 234 234 236 231 248 243 242 242 246 248 246 245 250 252 260 272 261 260 256 250 244 240 238 245
295 294 294 293 286 275 267 269 267 260 258 256 252 248 243 240 236 234 232 233 231 233 234 234 232 239 240 243 243 249 244 250 249 265 258 253 251 265 261 257 252 246 244 243 244
296 295 295 294 279 272 274 274 275 273 266 261 252 246 242 232 225 230 233 237 236 228 226 226 222 228 244 245 245 247 249 251 250 250 252 254 259 260 262 260 255 251 244 243 248
298 298 299 292 277 275 278 283 281 279 273 261 254 243 239 230 221 221 228 231 228 215 202 215 217 212 242 235 234 245 243 243 245 243 251 262 256 262 262 262 257 254 251 246 239
294 295 296 283 278 274 288 287 286 284 279 263 251 241 230 228 221 217 220 217 210 196 191 202 220 227 222 225 236 248 249 247 247 248 250 250 258 257 261 259 257 253 252 252 251
289 291 295 275 271 282 288 289 292 290 279 262 246 231 221 219 218 215 215 214 213 212 204 207 225 243 252 257 253 255 262 266 266 255 250 250 254 256 258 259 258 256 255 254 254
289 293 289 267 271 286 293 295 293 287 275 258 233 220 217 203 213 216 215 214 212 215 218 223 238 245 253 264 271 280 278 283 276 267 259 255 251 252 252 254 255 256 257 259 260